1491451201.08,62502,13.25,72808.0,-6.37,-7.15,-7.15,0,*51
1491451202.3,62503,13.25,72808.5,-6.37,-7.15,-7.15,0,*50
1491451203.56,62504,13.25,72806.0,-6.37,-7.05,-7.05,0,*57
1491451204.78,62505,13.25,72808.0,-6.37,-7.15,-7.19,0,*5A
1491451206.0,62506,13.25,72808.5,-6.37,-7.15,-7.15,0,*55
1491451207.26,62507,13.25,72804.5,-6.37,-7.05,-7.05,0,*54
1491451208.51,62508,13.25,72808.5,-6.35,-6.97,-7.01,0,*57
1491451209.77,62509,13.25,72810.5,-6.37,-7.05,-7.05,0,*5A
1491451211.01,62510,13.25,72806.8,-6.35,-7.01,-7.01,0,*50
1491451212.26,62511,13.25,72810.0,-6.35,-7.01,-7.01,0,*51
1491451213.49,62512,13.25,72804.5,-6.37,-7.15,-7.05,0,*51
1491451214.75,62513,13.25,72804.3,-6.37,-7.05,-7.05,0,*51
1491451215.99,62514,13.31,72808.8,-6.37,-7.15,-7.05,0,*57
1491451217.23,62515,13.31,72810.0,-6.37,-7.19,-7.05,0,*5A
1491451218.46,62516,13.25,72806.0,-6.37,-7.11,-7.11,0,*54
1491451219.66,62517,13.25,72810.0,-6.35,-7.11,-7.11,0,*57
1491451220.89,62518,13.25,72806.5,-6.35,-7.11,-7.01,0,*59
1491451222.15,62519,13.25,72804.0,-6.37,-7.05,-7.01,0,*5F
1491451223.41,62520,13.25,72806.3,-6.37,-7.05,-7.05,0,*51
1491451224.63,62521,13.25,72806.0,-6.35,-7.19,-7.05,0,*5F
1491451225.87,62522,13.31,72808.8,-6.37,-7.15,-7.05,0,*52
1491451227.1,62523,13.25,72806.3,-6.37,-7.15,-7.05,0,*53
1491451228.31,62524,13.25,72808.5,-6.35,-7.15,-7.11,0,*53
1491451229.53,62525,13.25,72804.0,-6.35,-7.15,-7.01,0,*53
1491451230.77,62526,13.25,72804.8,-6.35,-7.01,-6.97,0,*5B
1491451232.02,62527,13.25,72806.3,-6.35,-7.01,-7.01,0,*54
1491451233.24,62528,13.25,72808.0,-6.35,-7.11,-7.01,0,*5A
1491451234.49,62529,13.25,72808.5,-6.35,-7.01,-7.01,0,*5A
1491451235.74,62530,13.25,72806.3,-6.35,-6.97,-6.97,0,*52
1491451236.98,62531,13.25,72806.0,-6.35,-7.01,-7.01,0,*53
1491451238.23,62532,13.25,72804.5,-6.35,-7.01,-7.01,0,*50
1491451239.5,62533,13.25,72804.0,-6.33,-6.97,-7.01,0,*59
1491451240.77,62534,13.25,72808.0,-6.33,-6.97,-7.01,0,*5E
1491451242.04,62535,13.25,72804.5,-6.33,-7.01,-7.01,0,*51
1491451243.31,62536,13.25,72806.0,-6.33,-6.97,-7.01,0,*5C
1491451244.58,62537,13.25,72804.8,-6.33,-7.01,-7.01,0,*53
1491451245.85,62538,13.25,72810.3,-6.33,-7.01,-6.97,0,*52
1491451247.12,62539,13.25,72806.3,-6.33,-6.97,-7.01,0,*53
1491451248.39,62540,13.25,72806.8,-6.33,-6.97,-7.01,0,*5D
1491451249.66,62541,13.25,72804.0,-6.33,-7.01,-7.01,0,*52
1491451250.9,62542,13.25,72804.0,-6.35,-7.01,-7.01,0,*57
1491451252.17,62543,13.25,72804.5,-6.33,-7.01,-7.01,0,*50
1491451253.44,62544,13.25,72804.5,-6.33,-7.01,-6.97,0,*59
1491451254.71,62545,13.25,72806.3,-6.33,-7.01,-7.01,0,*56
1491451255.98,62546,13.25,72806.3,-6.33,-7.01,-6.97,0,*5B
1491451257.25,62547,13.25,72808.5,-6.33,-7.01,-6.97,0,*5A
1491451258.49,62548,13.25,72804.8,-6.35,-7.01,-6.97,0,*53
1491451259.72,62549,13.25,72806.8,-6.35,-6.97,-6.89,0,*53
1491451260.97,62550,13.25,72806.0,-6.35,-6.97,-6.97,0,*54
1491451262.24,62551,13.25,72810.3,-6.33,-7.01,-6.97,0,*5D
1491451263.48,62552,13.25,72808.8,-6.31,-6.97,-6.93,0,*56
1491451264.75,62553,13.25,72806.5,-6.33,-7.01,-6.97,0,*5F
1491451266.02,62554,13.25,72806.3,-6.33,-7.01,-7.01,0,*56
1491451267.29,62555,13.25,72806.8,-6.33,-7.01,-7.01,0,*57
1491451268.51,62556,13.25,72806.8,-6.33,-7.15,-7.15,0,*54
1491451269.73,62557,13.31,72808.8,-6.33,-7.15,-7.15,0,*55
1491451270.96,62558,13.31,72808.0,-6.33,-7.15,-7.11,0,*5E
1491451272.17,62559,13.25,72806.8,-6.31,-7.11,-7.05,0,*5C
1491451273.4,62560,13.25,72804.3,-6.33,-7.11,-7.15,0,*55
1491451274.62,62561,13.31,72810.8,-6.33,-7.15,-7.15,0,*50
1491451275.85,62562,13.25,72804.3,-6.33,-7.11,-7.11,0,*53
1491451277.08,62563,13.25,72808.3,-6.33,-7.11,-7.11,0,*52
1491451278.31,62564,13.25,72806.0,-6.33,-7.15,-7.11,0,*51
1491451279.53,62565,13.25,72808.0,-6.33,-7.11,-7.15,0,*50
1491451280.76,62566,13.25,72806.3,-6.33,-7.15,-7.11,0,*53
1491451281.99,62567,13.25,72806.8,-6.33,-7.15,-7.11,0,*52
1491451283.19,62568,13.25,72806.5,-6.35,-7.11,-7.11,0,*5F
1491451284.4,62569,13.25,72808.3,-6.35,-7.15,-7.11,0,*5A
1491451285.62,62570,13.25,72808.3,-6.33,-7.15,-7.15,0,*50
1491451286.84,62571,13.31,72810.3,-6.33,-7.15,-7.11,0,*55
1491451288.07,62572,13.31,72808.0,-6.33,-7.15,-7.11,0,*56
1491451289.3,62573,13.25,72804.0,-6.33,-7.15,-7.11,0,*57
1491451290.53,62574,13.25,72810.8,-6.33,-7.11,-7.11,0,*54
1491451291.77,62575,13.25,72808.5,-6.33,-7.11,-7.01,0,*54
1491451293.0,62576,13.25,72806.0,-6.31,-7.11,-7.01,0,*55
1491451294.27,62577,13.25,72804.8,-6.33,-6.97,-6.97,0,*57
1491451295.54,62578,13.31,72810.0,-6.33,-7.01,-7.01,0,*58
1491451296.78,62579,13.25,72806.5,-6.33,-7.11,-7.01,0,*58
1491451298.03,62580,13.25,72808.0,-6.31,-6.97,-6.97,0,*5D
1491451299.3,62581,13.25,72804.0,-6.33,-7.01,-7.01,0,*5E
1491451300.57,62582,13.25,72808.5,-6.33,-7.01,-6.97,0,*53
1491451301.84,62583,13.25,72806.0,-6.33,-6.97,-7.01,0,*52
1491451303.11,62584,13.25,72808.0,-6.33,-7.01,-7.01,0,*5B
1491451304.38,62585,13.25,72804.0,-6.33,-6.97,-7.01,0,*54
1491451305.62,62586,13.25,72806.3,-6.31,-6.93,-6.93,0,*5B
1491451306.87,62587,13.25,72802.5,-6.31,-7.01,-7.01,0,*5A
1491451308.14,62588,13.25,72806.0,-6.33,-6.97,-7.01,0,*59
1491451309.41,62589,13.25,72806.0,-6.33,-7.01,-7.01,0,*56
1491451310.67,62590,13.25,72806.0,-6.33,-7.01,-7.01,0,*5E
1491451311.92,62591,13.25,72806.3,-6.31,-6.97,-6.93,0,*59
1491451313.19,62592,13.25,72806.3,-6.33,-7.01,-7.01,0,*5C
1491451314.43,62593,13.25,72810.5,-6.31,-6.97,-6.93,0,*5B
1491451315.68,62594,13.25,72810.5,-6.33,-7.11,-7.01,0,*5B
1491451316.93,62595,13.25,72808.3,-6.31,-6.93,-6.97,0,*5D
1491451318.15,62596,13.31,72810.5,-6.31,-6.93,-6.85,0,*5D
1491451319.37,62597,13.25,72806.8,-6.33,-6.85,-6.89,0,*55
1491451320.59,62598,13.25,72806.5,-6.33,-6.89,-6.89,0,*56
1491451321.83,62599,13.25,72804.5,-6.33,-6.89,-6.97,0,*58
1491451323.03,62600,13.25,72806.8,-6.31,-6.81,-6.81,0,*56
1491451324.24,62601,13.25,72806.3,-6.31,-6.81,-6.81,0,*57
1491451325.46,62602,13.25,72804.3,-6.33,-6.85,-6.89,0,*5A
1491451326.66,62603,13.25,72804.3,-6.31,-6.81,-6.81,0,*55
1491451327.86,62604,13.25,72800.8,-6.31,-6.85,-6.81,0,*56
1491451329.05,62605,13.25,72806.5,-6.31,-6.85,-6.81,0,*57
1491451330.27,62606,13.25,72804.5,-6.33,-6.89,-6.85,0,*5E
1491451331.47,62607,13.25,72802.8,-6.31,-6.85,-6.85,0,*51
1491451332.68,62608,13.25,72806.3,-6.29,-6.85,-6.85,0,*57
1491451333.92,62609,13.25,72804.8,-6.29,-6.93,-6.85,0,*51
1491451335.14,62610,13.25,72804.0,-6.29,-6.85,-6.85,0,*5E
1491451336.35,62611,13.25,72804.8,-6.29,-6.85,-6.85,0,*5F
1491451337.57,62612,13.25,72804.8,-6.29,-6.85,-6.85,0,*5C
1491451338.77,62613,13.25,72804.8,-6.31,-6.85,-6.81,0,*50
1491451339.98,62614,13.25,72804.0,-6.29,-6.85,-6.85,0,*5A
1491451341.2,62615,13.25,72804.5,-6.31,-6.85,-6.93,0,*55
1491451342.39,62616,13.25,72806.0,-6.31,-6.85,-6.85,0,*51
1491451343.59,62617,13.25,72804.0,-6.31,-6.85,-6.85,0,*50
1491451344.81,62618,13.25,72804.8,-6.31,-6.93,-6.85,0,*58
1491451346.03,62619,13.25,72808.3,-6.31,-6.93,-6.85,0,*59
1491451347.27,62620,13.25,72804.0,-6.29,-6.93,-6.85,0,*5A
1491451348.54,62621,13.25,72804.3,-6.29,-6.93,-6.97,0,*58
1491451349.78,62622,13.31,72808.3,-6.29,-6.93,-6.85,0,*58
1491451351.05,62623,13.25,72806.0,-6.29,-6.93,-6.93,0,*5E
1491451352.26,62624,13.25,72804.8,-6.25,-6.81,-6.81,0,*55
1491451353.49,62625,13.25,72804.8,-6.29,-6.81,-6.81,0,*58
1491451354.71,62626,13.25,72806.3,-6.29,-6.81,-6.73,0,*56
1491451355.93,62627,13.25,72806.8,-6.25,-6.69,-6.63,0,*5C
1491451357.15,62628,13.25,72806.8,-6.25,-6.63,-6.69,0,*53
1491451358.37,62629,13.25,72806.8,-6.29,-6.73,-6.81,0,*59
1491451359.58,62630,13.25,72804.0,-6.25,-6.77,-6.81,0,*59
1491451360.8,62631,13.25,72806.3,-6.29,-6.81,-6.81,0,*5D
1491451362.01,62632,13.25,72804.8,-6.25,-6.77,-6.77,0,*52
1491451363.2,62633,13.25,72806.0,-6.25,-6.69,-6.69,0,*53
1491451364.4,62634,13.25,72804.0,-6.25,-6.77,-6.69,0,*5B
1491451365.61,62635,13.31,72810.3,-6.29,-6.81,-6.85,0,*5D
1491451366.82,62636,13.25,72806.3,-6.25,-6.77,-6.77,0,*56
1491451368.02,62637,13.25,72806.5,-6.25,-6.77,-6.77,0,*57
1491451369.22,62638,13.25,72804.5,-6.25,-6.77,-6.77,0,*58
1491451370.43,62639,13.25,72808.8,-6.25,-6.77,-6.77,0,*59
1491451371.64,62640,13.25,72804.5,-6.25,-6.81,-6.81,0,*57
1491451372.84,62641,13.25,72808.0,-6.25,-6.81,-6.77,0,*5F
1491451374.05,62642,13.25,72804.8,-6.25,-6.77,-6.81,0,*5C
1491451375.25,62643,13.25,72804.0,-6.25,-6.81,-6.69,0,*52
1491451376.46,62644,13.25,72802.5,-6.25,-6.77,-6.81,0,*5A
1491451377.69,62645,13.25,72802.8,-6.23,-6.77,-6.77,0,*54
1491451378.92,62646,13.25,72802.8,-6.23,-6.77,-6.81,0,*5E
1491451380.15,62647,13.25,72808.3,-6.23,-6.77,-6.77,0,*56
1491451381.37,62648,13.25,72810.8,-6.23,-6.77,-6.77,0,*59
1491451382.59,62649,13.25,72810.5,-6.23,-6.77,-6.69,0,*57
1491451383.79,62650,13.25,72804.0,-6.21,-6.73,-6.77,0,*56
1491451385.02,62651,13.25,72804.3,-6.23,-6.81,-6.77,0,*58
1491451386.24,62652,13.25,72804.8,-6.23,-6.81,-6.77,0,*5B
1491451387.47,62653,13.25,72808.8,-6.21,-6.73,-6.63,0,*50
1491451388.66,62654,13.25,72806.5,-6.21,-6.73,-6.73,0,*56
1491451389.88,62655,13.25,72810.0,-6.23,-6.69,-6.77,0,*5A
1491451391.13,62656,13.25,72804.3,-6.23,-6.69,-6.63,0,*5C
1491451392.37,62657,13.25,72810.0,-6.23,-6.69,-6.63,0,*5D
1491451393.59,62658,13.25,72806.5,-6.21,-6.63,-6.59,0,*53
1491451394.81,62659,13.25,72808.5,-6.21,-6.63,-6.59,0,*52
1491451396.03,62660,13.25,72800.8,-6.23,-6.77,-6.69,0,*5C
1491451397.26,62661,13.25,72804.8,-6.23,-6.77,-6.69,0,*5D
1491451398.48,62662,13.25,72802.8,-6.23,-6.77,-6.69,0,*5E
1491451399.71,62663,13.25,72804.8,-6.23,-6.77,-6.77,0,*50
1491451400.91,62664,13.25,72804.3,-6.21,-6.81,-6.77,0,*5C
1491451402.1,62665,13.25,72804.3,-6.21,-6.77,-6.69,0,*5B
1491451403.33,62666,13.25,72800.8,-6.19,-6.73,-6.73,0,*5C
1491451404.52,62667,13.25,72804.8,-6.21,-6.73,-6.73,0,*56
1491451405.74,62668,13.25,72804.0,-6.21,-6.63,-6.59,0,*50
1491451406.94,62669,13.25,72806.0,-6.21,-6.59,-6.59,0,*58
1491451408.14,62670,13.25,72806.8,-6.21,-6.59,-6.59,0,*50
1491451409.34,62671,13.25,72804.0,-6.21,-6.73,-6.73,0,*51
1491451410.53,62672,13.25,72808.5,-6.21,-6.89,-6.77,0,*53
1491451411.8,62673,13.25,72802.8,-6.23,-7.05,-7.05,0,*51
1491451413.05,62674,13.25,72802.5,-6.21,-7.01,-7.01,0,*54
1491451414.29,62675,13.25,72806.3,-6.21,-7.01,-6.97,0,*5B
1491451415.54,62676,13.25,72800.0,-6.21,-7.01,-7.01,0,*56
1491451416.78,62677,13.25,72802.0,-6.21,-7.01,-7.01,0,*57
1491451418.03,62678,13.25,72800.5,-6.21,-7.01,-7.01,0,*58
1491451419.27,62679,13.25,72802.5,-6.21,-7.01,-6.97,0,*57
1491451420.52,62680,13.25,72798.3,-6.21,-7.01,-6.97,0,*51
1491451421.72,62681,13.25,72798.8,-6.21,-6.85,-6.89,0,*52
1491451422.94,62682,13.25,72798.3,-6.19,-6.85,-6.85,0,*56
1491451424.14,62683,13.25,72800.5,-6.21,-6.85,-6.85,0,*5C
1491451425.34,62684,13.25,72802.3,-6.21,-6.85,-6.77,0,*56
1491451426.53,62685,13.25,72800.8,-6.21,-6.85,-6.85,0,*5A
1491451427.73,62686,13.25,72798.5,-6.21,-6.77,-6.77,0,*59
1491451428.93,62687,13.25,72800.0,-6.21,-6.73,-6.77,0,*5C
1491451430.13,62688,13.25,72800.5,-6.21,-6.77,-6.77,0,*57
1491451431.36,62689,13.25,72802.8,-6.19,-6.77,-6.85,0,*50
1491451432.58,62690,13.25,72800.3,-6.19,-6.77,-6.73,0,*51
1491451433.81,62691,13.25,72802.0,-6.19,-6.85,-6.77,0,*59
1491451435.04,62692,13.25,72800.5,-6.19,-6.77,-6.73,0,*53
1491451436.27,62693,13.25,72802.8,-6.19,-6.77,-6.73,0,*52
1491451437.49,62694,13.25,72800.0,-6.19,-6.73,-6.73,0,*51
1491451438.72,62695,13.25,72802.3,-6.19,-6.73,-6.73,0,*50
1491451439.91,62696,13.25,72800.5,-6.17,-6.73,-6.73,0,*5D
1491451441.14,62697,13.25,72800.5,-6.19,-6.73,-6.73,0,*52
1491451442.37,62698,13.25,72800.0,-6.19,-6.77,-6.77,0,*5D
1491451443.6,62699,13.25,72800.8,-6.19,-6.77,-6.73,0,*58
1491451444.82,62700,13.25,72800.3,-6.19,-6.73,-6.73,0,*5D
1491451446.05,62701,13.25,72802.5,-6.19,-6.77,-6.77,0,*5C
1491451447.27,62702,13.25,72802.3,-6.19,-6.73,-6.73,0,*5F
1491451448.47,62703,13.25,72802.3,-6.17,-6.73,-6.69,0,*5B
1491451449.69,62704,13.25,72802.3,-6.19,-6.73,-6.73,0,*59
1491451450.88,62705,13.25,72800.3,-6.17,-6.73,-6.69,0,*5D
1491451452.11,62706,13.25,72804.3,-6.19,-6.73,-6.73,0,*5B
1491451453.3,62707,13.25,72806.3,-6.17,-6.69,-6.73,0,*5F
1491451454.49,62708,13.25,72802.0,-6.17,-6.69,-6.69,0,*5B
1491451455.72,62709,13.25,72802.5,-6.19,-6.77,-6.73,0,*50
1491451456.97,62710,13.25,72802.8,-6.19,-6.63,-6.73,0,*5D
1491451458.17,62711,13.25,72800.8,-6.17,-6.59,-6.59,0,*53
1491451459.36,62712,13.25,72800.0,-6.17,-6.73,-6.69,0,*5B
1491451460.55,62713,13.25,72798.3,-6.17,-6.69,-6.69,0,*51
1491451461.74,62714,13.25,72798.0,-6.17,-6.69,-6.69,0,*56
1491451462.93,62715,13.25,72800.0,-6.17,-6.69,-6.59,0,*54
1491451464.13,62716,13.25,72798.5,-6.17,-6.69,-6.59,0,*57
1491451465.31,62717,13.25,72796.5,-6.17,-6.69,-6.69,0,*55
1491451466.51,62718,13.25,72798.5,-6.17,-6.73,-6.69,0,*51
1491451467.75,62719,13.25,72798.0,-6.13,-6.63,-6.63,0,*5F
1491451468.97,62720,13.25,72798.3,-6.13,-6.63,-6.55,0,*50
1491451470.22,62721,13.25,72802.8,-6.13,-6.63,-6.63,0,*54
1491451471.43,62722,13.25,72798.8,-6.13,-6.63,-6.69,0,*5D
1491451472.68,62723,13.25,72796.8,-6.13,-6.63,-6.63,0,*56
1491451473.87,62724,13.25,72798.8,-6.13,-6.69,-6.69,0,*51
1491451475.09,62725,13.25,72796.0,-6.13,-6.69,-6.63,0,*5A
1491451476.31,62726,13.25,72796.5,-6.13,-6.69,-6.63,0,*59
1491451477.54,62727,13.25,72792.8,-6.13,-6.55,-6.63,0,*57
1491451478.76,62728,13.25,72794.3,-6.13,-6.55,-6.63,0,*58
1491451479.99,62729,13.25,72792.5,-6.13,-6.63,-6.51,0,*5D
1491451481.21,62730,13.25,72792.3,-6.13,-6.63,-6.55,0,*51
1491451482.45,62731,13.25,72796.3,-6.13,-6.63,-6.63,0,*55
1491451483.67,62732,13.25,72794.0,-6.13,-6.63,-6.69,0,*5C
1491451484.91,62733,13.25,72798.0,-6.13,-6.63,-6.63,0,*57
1491451486.13,62734,13.25,72794.8,-6.13,-6.69,-6.63,0,*5A
1491451487.35,62735,13.25,72794.5,-6.13,-6.63,-6.55,0,*54
1491451488.6,62736,13.25,72794.3,-6.13,-6.63,-6.63,0,*52
1491451489.83,62737,13.25,72796.8,-6.13,-6.55,-6.63,0,*56
1491451491.05,62738,13.25,72794.8,-6.13,-6.63,-6.55,0,*59
1491451492.27,62739,13.25,72794.8,-6.13,-6.63,-6.55,0,*58
1491451493.51,62740,13.25,72792.3,-6.13,-6.63,-6.63,0,*53
1491451494.76,62741,13.25,72798.0,-6.13,-6.63,-6.63,0,*52
1491451495.97,62742,13.25,72792.8,-6.13,-6.63,-6.69,0,*5B
1491451497.16,62743,13.25,72792.5,-6.13,-6.69,-6.69,0,*50
1491451498.35,62744,13.25,72798.0,-6.13,-6.69,-6.69,0,*57
1491451499.55,62745,13.25,72794.3,-6.13,-6.69,-6.69,0,*56
1491451500.74,62746,13.25,72798.8,-6.13,-6.69,-6.69,0,*55
1491451501.93,62747,13.25,72800.0,-6.13,-6.69,-6.69,0,*54
1491451503.12,62748,13.25,72796.5,-6.13,-6.69,-6.69,0,*5B
1491451504.31,62749,13.25,72800.3,-6.13,-6.69,-6.77,0,*55
1491451505.53,62750,13.25,72798.0,-6.13,-6.69,-6.63,0,*58
1491451506.76,62751,13.25,72796.0,-6.13,-6.69,-6.63,0,*59
1491451507.98,62752,13.25,72798.0,-6.13,-6.69,-6.63,0,*5A
1491451509.19,62753,13.25,72802.8,-6.13,-6.63,-6.69,0,*5B
1491451510.44,62754,13.25,72798.8,-6.13,-6.63,-6.63,0,*56
1491451511.66,62755,13.25,72798.8,-6.13,-6.69,-6.63,0,*5D
1491451512.89,62756,13.25,72798.0,-6.13,-6.77,-6.63,0,*51
1491451514.08,62757,13.25,72798.3,-6.13,-6.69,-6.69,0,*55
1491451515.27,62758,13.25,72800.0,-6.13,-6.69,-6.69,0,*5A
1491451516.46,62759,13.25,72796.8,-6.13,-6.69,-6.69,0,*5B
1491451517.66,62760,13.25,72798.3,-6.13,-6.77,-6.69,0,*5E
1491451518.88,62761,13.25,72798.8,-6.13,-6.69,-6.63,0,*5A
1491451520.15,62762,13.25,72796.5,-6.11,-6.63,-6.63,0,*51
1491451521.34,62763,13.25,72796.5,-6.13,-6.69,-6.69,0,*52
1491451522.53,62764,13.25,72798.0,-6.13,-6.69,-6.69,0,*55
1491451523.73,62765,13.25,72800.5,-6.13,-6.77,-6.77,0,*54
1491451524.94,62766,13.25,72802.5,-6.13,-6.77,-6.81,0,*5E
1491451526.14,62767,13.25,72800.0,-6.13,-6.81,-6.77,0,*5F
1491451527.35,62768,13.25,72802.8,-6.13,-6.77,-6.77,0,*59
1491451528.55,62769,13.25,72802.0,-6.13,-6.77,-6.77,0,*58
1491451529.76,62770,13.25,72802.5,-6.13,-6.77,-6.81,0,*59
1491451530.98,62771,13.25,72800.8,-6.11,-6.81,-6.77,0,*5A
1491451532.21,62772,13.25,72802.8,-6.11,-6.77,-6.77,0,*50
1491451533.43,62773,13.25,72802.0,-6.11,-6.69,-6.77,0,*5E
1491451534.66,62774,13.25,72800.0,-6.11,-6.81,-6.81,0,*56
1491451535.89,62775,13.25,72808.8,-6.11,-6.89,-6.89,0,*57
1491451537.12,62776,13.25,72804.8,-6.11,-6.81,-6.81,0,*54
1491451538.34,62777,13.25,72802.3,-6.11,-6.81,-6.77,0,*5C
1491451539.55,62778,13.25,72802.8,-6.09,-6.77,-6.81,0,*5A
1491451540.78,62779,13.25,72804.0,-6.11,-6.81,-6.81,0,*5B
1491451542.02,62780,13.25,72810.3,-6.11,-6.81,-6.81,0,*5D
1491451543.24,62781,13.25,72810.3,-6.11,-6.89,-6.77,0,*5D
1491451544.46,62782,13.25,72804.3,-6.11,-6.69,-6.69,0,*5F
1491451545.73,62783,13.25,72806.3,-6.11,-6.63,-6.63,0,*5E
1491451546.96,62784,13.25,72800.3,-6.11,-6.63,-6.69,0,*53
1491451548.21,62785,13.25,72804.3,-6.11,-6.63,-6.51,0,*59
1491451549.41,62786,13.25,72806.8,-6.09,-6.47,-6.51,0,*55
1491451550.61,62787,13.25,72802.0,-6.09,-6.51,-6.51,0,*53
1491451551.84,62788,13.25,72800.5,-6.11,-6.55,-6.55,0,*55
1491451553.07,62789,13.25,72802.8,-6.11,-6.55,-6.51,0,*50
1491451554.29,62790,13.25,72802.5,-6.11,-6.55,-6.55,0,*5C
1491451555.5,62791,13.25,72800.3,-6.09,-6.51,-6.51,0,*54
1491451556.72,62792,13.25,72806.0,-6.09,-6.63,-6.47,0,*51
1491451557.92,62793,13.25,72802.5,-6.09,-6.59,-6.59,0,*56
1491451559.16,62794,13.25,72806.5,-6.09,-6.63,-6.63,0,*51
1491451560.38,62795,13.25,72806.3,-6.09,-6.63,-6.51,0,*51
1491451561.62,62796,13.25,72800.5,-6.09,-6.63,-6.63,0,*53
1491451562.86,62797,13.25,72800.0,-6.09,-6.63,-6.63,0,*52
1491451564.08,62798,13.25,72800.5,-6.09,-6.63,-6.73,0,*5C
1491451565.3,62799,13.25,72796.8,-6.09,-6.73,-6.63,0,*5D
1491451566.52,62800,13.25,72800.0,-6.09,-6.73,-6.63,0,*52
1491451567.75,62801,13.25,72802.0,-6.09,-6.59,-6.63,0,*5B
1491451568.94,62802,13.25,72802.3,-6.09,-6.73,-6.73,0,*51
1491451570.16,62803,13.25,72800.5,-6.09,-6.73,-6.63,0,*51
1491451571.41,62804,13.25,72798.0,-6.09,-6.63,-6.63,0,*57
1491451572.63,62805,13.25,72800.5,-6.09,-6.73,-6.63,0,*57
1491451573.84,62806,13.25,72796.3,-6.11,-6.69,-6.69,0,*5C
1491451575.07,62807,13.25,72802.3,-6.09,-6.73,-6.63,0,*55
1491451576.31,62808,13.25,72800.8,-6.09,-6.63,-6.63,0,*5B
1491451577.53,62809,13.25,72802.3,-6.09,-6.73,-6.63,0,*5B
1491451578.75,62810,13.25,72798.8,-6.09,-6.73,-6.63,0,*53
1491451579.95,62811,13.25,72802.0,-6.09,-6.77,-6.77,0,*53
1491451581.15,62812,13.25,72802.5,-6.09,-6.77,-6.73,0,*54
1491451582.35,62813,13.25,72806.0,-6.09,-6.73,-6.73,0,*51
1491451583.57,62814,13.25,72800.5,-6.11,-6.77,-6.77,0,*5F
1491451584.77,62815,13.25,72804.0,-6.09,-6.73,-6.73,0,*57
1491451585.96,62816,13.25,72802.8,-6.09,-6.73,-6.73,0,*54
1491451587.19,62817,13.25,72802.8,-6.11,-6.81,-6.77,0,*55
1491451588.39,62818,13.25,72800.3,-6.09,-6.77,-6.73,0,*5E
1491451589.59,62819,13.25,72800.8,-6.09,-6.77,-6.77,0,*5B
1491451590.79,62820,13.25,72802.3,-6.09,-6.77,-6.77,0,*51
1491451591.99,62821,13.25,72802.0,-6.09,-6.77,-6.77,0,*50
1491451593.18,62822,13.25,72800.3,-6.09,-6.73,-6.73,0,*53
1491451594.38,62823,13.25,72802.3,-6.09,-6.77,-6.73,0,*56
1491451595.58,62824,13.25,72802.3,-6.09,-6.73,-6.73,0,*55
1491451596.79,62825,13.25,72800.3,-6.09,-6.63,-6.73,0,*55
1491451598.02,62826,13.25,72800.3,-6.11,-6.77,-6.77,0,*5E
1491451599.22,62827,13.25,72800.0,-6.09,-6.73,-6.73,0,*56
1491451600.42,62828,13.25,72802.5,-6.09,-6.77,-6.77,0,*59
1491451601.65,62829,13.25,72800.8,-6.11,-6.81,-6.81,0,*51
1491451602.84,62830,13.25,72802.5,-6.09,-6.85,-6.77,0,*5D
1491451604.07,62831,13.25,72802.0,-6.11,-6.89,-6.81,0,*50
1491451605.28,62832,13.25,72804.3,-6.09,-6.77,-6.81,0,*5B
1491451606.48,62833,13.25,72808.3,-6.09,-6.77,-6.77,0,*53
1491451607.7,62834,13.25,72804.5,-6.09,-6.73,-6.63,0,*55
1491451608.94,62835,13.25,72806.3,-6.09,-6.63,-6.63,0,*55
1491451610.14,62836,13.25,72804.8,-6.09,-6.73,-6.59,0,*5E
1491451611.36,62837,13.25,72804.0,-6.09,-6.63,-6.59,0,*5E
1491451612.61,62838,13.25,72804.0,-6.11,-6.69,-6.63,0,*5B
1491451613.83,62839,13.25,72806.5,-6.09,-6.73,-6.63,0,*58
1491451615.07,62840,13.25,72806.0,-6.07,-6.63,-6.59,0,*50
1491451616.27,62841,13.25,72802.8,-6.09,-6.59,-6.59,0,*56
1491451617.52,62842,13.25,72800.0,-6.07,-6.59,-6.63,0,*52
1491451618.77,62843,13.25,72804.5,-6.07,-6.59,-6.63,0,*53
1491451620.04,62844,13.25,72800.8,-6.07,-6.63,-6.63,0,*5D
1491451621.29,62845,13.25,72804.8,-6.07,-6.73,-6.63,0,*5D
1491451622.49,62846,13.25,72802.3,-6.05,-6.69,-6.59,0,*5E
1491451623.75,62847,13.25,72804.8,-6.07,-6.63,-6.63,0,*5E
1491451625.02,62848,13.25,72806.8,-6.07,-6.63,-6.63,0,*51
1491451626.28,62849,13.25,72802.0,-6.07,-6.59,-6.63,0,*59
1491451627.52,62850,13.25,72804.0,-6.07,-6.63,-6.59,0,*51
1491451628.74,62851,13.25,72802.3,-6.09,-6.63,-6.59,0,*5E
1491451629.97,62852,13.25,72800.3,-6.07,-6.59,-6.59,0,*5A
1491451631.19,62853,13.25,72802.8,-6.07,-6.59,-6.59,0,*5B
1491451632.44,62854,13.25,72800.3,-6.07,-6.59,-6.63,0,*55
1491451633.64,62855,13.25,72804.3,-6.05,-6.55,-6.59,0,*53
1491451634.89,62856,13.25,72800.8,-6.07,-6.63,-6.59,0,*57
1491451636.14,62857,13.25,72802.0,-6.07,-6.59,-6.63,0,*56
1491451637.39,62858,13.25,72804.8,-6.07,-6.59,-6.63,0,*59
1491451638.63,62859,13.25,72800.0,-6.07,-6.63,-6.59,0,*58
1491451639.83,62860,13.25,72802.5,-6.05,-6.59,-6.59,0,*59
1491451641.1,62861,13.25,72800.3,-6.07,-6.63,-6.63,0,*5A
1491451642.37,62862,13.25,72804.0,-6.07,-6.63,-6.63,0,*59
1491451643.57,62863,13.25,72802.8,-6.05,-6.55,-6.55,0,*5A
1491451644.8,62864,13.25,72806.8,-6.07,-6.59,-6.59,0,*5F
1491451646.02,62865,13.25,72802.3,-6.05,-6.63,-6.59,0,*55
1491451647.26,62866,13.25,72802.3,-6.07,-6.63,-6.59,0,*54
1491451648.46,62867,13.25,72802.3,-6.05,-6.59,-6.59,0,*5E
1491451649.66,62868,13.25,72800.5,-6.05,-6.59,-6.59,0,*51
1491451650.86,62869,13.25,72804.3,-6.05,-6.59,-6.59,0,*50
1491451652.13,62870,13.25,72802.0,-6.07,-6.63,-6.63,0,*5A
1491451653.33,62871,13.25,72806.8,-6.05,-6.59,-6.59,0,*59
1491451654.55,62872,13.25,72802.3,-6.05,-6.59,-6.63,0,*53
1491451655.8,62873,13.19,72802.5,-6.07,-6.63,-6.59,0,*50
1491451657.0,62874,13.25,72804.0,-6.05,-6.59,-6.55,0,*50
1491451658.23,62875,13.25,72802.0,-6.07,-6.59,-6.59,0,*5F
1491451659.45,62876,13.25,72804.8,-6.07,-6.59,-6.55,0,*50
1491451660.72,62877,13.25,72804.8,-6.07,-6.63,-6.63,0,*5D
1491451661.92,62878,13.25,72806.5,-6.05,-6.55,-6.55,0,*50
1491451663.12,62879,13.25,72806.0,-6.05,-6.59,-6.59,0,*51
1491451664.36,62880,13.25,72804.8,-6.07,-6.63,-6.73,0,*54
1491451665.56,62881,13.25,72804.8,-6.05,-6.55,-6.55,0,*56
1491451666.76,62882,13.19,72802.5,-6.05,-6.59,-6.59,0,*55
1491451667.96,62883,13.25,72804.5,-6.05,-6.59,-6.55,0,*58
1491451669.16,62884,13.25,72806.8,-6.05,-6.59,-6.59,0,*53
1491451670.36,62885,13.25,72804.5,-6.05,-6.59,-6.59,0,*52
1491451671.56,62886,13.25,72806.0,-6.05,-6.55,-6.59,0,*5D
1491451672.76,62887,13.25,72802.0,-6.05,-6.59,-6.55,0,*5C
1491451673.96,62888,13.25,72806.0,-6.05,-6.59,-6.55,0,*53
1491451675.16,62889,13.25,72804.8,-6.01,-6.55,-6.51,0,*5E
1491451676.36,62890,13.25,72804.0,-6.05,-6.55,-6.55,0,*56
1491451677.56,62891,13.25,72804.8,-6.05,-6.59,-6.59,0,*57
1491451678.76,62892,13.19,72802.3,-6.05,-6.59,-6.55,0,*58
1491451679.96,62893,13.25,72806.0,-6.05,-6.55,-6.55,0,*55
1491451681.16,62894,13.25,72806.3,-6.05,-6.59,-6.59,0,*52
1491451682.35,62895,13.25,72804.5,-6.05,-6.55,-6.55,0,*53
1491451683.55,62896,13.19,72802.0,-6.05,-6.55,-6.55,0,*50
1491451684.75,62897,13.25,72804.8,-6.05,-6.55,-6.59,0,*5D
1491451685.95,62898,13.25,72804.3,-6.05,-6.55,-6.55,0,*5E
1491451687.15,62899,13.25,72802.3,-6.05,-6.59,-6.55,0,*53
1491451688.35,62900,13.25,72802.0,-6.05,-6.55,-6.55,0,*5E
1491451689.55,62901,13.25,72804.3,-6.05,-6.59,-6.59,0,*5F
1491451690.75,62902,13.19,72802.3,-6.01,-6.51,-6.51,0,*58
1491451691.95,62903,13.25,72802.0,-6.01,-6.55,-6.51,0,*5D
1491451693.15,62904,13.25,72800.0,-6.01,-6.55,-6.51,0,*5A
1491451694.37,62905,13.25,72804.0,-5.99,-6.51,-6.51,0,*5D
1491451695.57,62906,13.25,72806.3,-6.01,-6.51,-6.55,0,*58
1491451696.77,62907,13.25,72808.5,-6.01,-6.51,-6.51,0,*5D
1491451697.97,62908,13.25,72806.0,-6.01,-6.51,-6.51,0,*52
1491451699.17,62909,13.25,72806.8,-6.01,-6.51,-6.55,0,*57
1491451700.4,62910,13.19,72804.0,-5.99,-6.51,-6.51,0,*59
1491451701.6,62911,13.25,72806.8,-6.01,-6.51,-6.51,0,*5A
1491451702.84,62912,13.19,72802.5,-6.01,-6.63,-6.63,0,*59
1491451704.05,62913,13.25,72806.8,-6.01,-6.63,-6.55,0,*5D
1491451705.29,62914,13.25,72806.3,-5.99,-6.63,-6.51,0,*5C
1491451706.53,62915,13.25,72806.3,-6.01,-6.63,-6.63,0,*5E